Tracking 31011 objects as of 12-Jul-2025
HD Live streaming from Space Station
objects crossing your sky now

STARLINK-6209

Track STARLINK-6209 now!
10-day predictions
STARLINK-6209 is classified as:


NORAD ID: 56877
Int'l Code: 2023-083B
Perigee: 565.1 km
Apogee: 567.4 km
Inclination: 43.0 °
Period: 95.8 minutes
Semi major axis: 6937 km
RCS: Unknown
Launch date: June 12, 2023
Source: United States (US)
Launch site: AIR FORCE EASTERN TEST RANGE (AFETR)
Your satellite tracking list
Your tracking list is empty




NASA's NSSDC Master Catalog

Two Line Element Set (TLE):
1 56877U 23083B   25192.75173883 -.00000261  00000-0 -42310-5 0  9996
2 56877  43.0046 311.2676 0001671 265.9306  94.1346 15.02536254115427
Source of the keplerian elements: AFSPC